Location: Unspecified
(43.4354°N, 0.0000°E)
Time: 16:09:41
(UTC+00:00)

Vanguard 2 Rocket - Pass Details

Date: 22 June 2019
Orbit: 554 x 3326 km, 32.9° (Epoch: 21 July)

Event Time Altitude Azimuth Distance (km) Brightness Sun altitude
Rises 20:28:40 0° 214° (SW) 3,640 9.9 -7.1°
Reaches altitude 10° 20:31:16 10° 201° (SSW) 2,984 9.3 -7.5°
Maximum altitude 20:37:28 28° 146° (SE) 2,584 8.7 -8.3°
Drops below altitude 10° 20:47:01 10° 95° (E) 4,726 10.1 -9.5°
Sets 20:52:26 0° 86° (E) 6,229 10.8 -10.2°
